Weather History for Bainbridge, GA

Change the Weather History Date:

Tuesday, April 24, 2012

  Actual Average (KMAI) Record (KMAI)
Temperature  
Mean Temperature 58 °F 69 °F  
Max Temperature 73 °F 82 °F 93 °F (1999)
Min Temperature 42 °F 56 °F 41 °F (2012)
Degree Days  
Heating Degree Days 8    
Month to date heating degree days  
Since 1 July heating degree days  
Cooling Degree Days 0    
Month to date cooling degree days  
Year to date cooling degree days  
Growing Degree Days 8 (Base 50)    
Moisture  
Dew Point 41 °F    
Average Humidity 54    
Maximum Humidity 93    
Minimum Humidity 31    
Precipitation  
Precipitation 0.00 in 0.09 in 0.01 in (1998)
Month to date precipitation 3.35  
Year to date precipitation 18.87  
Sea Level Pressure  
Sea Level Pressure 30.00 in    
Wind  
Wind Speed 8 mph (WNW)    
Max Wind Speed 18 mph    
Max Gust Speed 25 mph    
Visibility 10 miles    
Events      
T = Trace of Precipitation, MM = Missing Value Source: NWS Daily Summary

Daily Weather History Graph

Daily Weather History Graph

Search for Another Location

Airport:

Trip Planner

Search our weather history database for the weather conditions in past years. The results will help you decide how hot, cold, wet, or windy it might be!

Date:

Astronomy

Apr. 24, 2012 Rise Set
Actual Time 7:00 AM EDT 8:13 PM EDT
Civil Twilight 6:35 AM EDT 8:38 PM EDT
Nautical Twilight 6:05 AM EDT 9:08 PM EDT
Astronomical Twilight 5:34 AM EDT 9:39 PM EDT
Moon 9:05 AM EDT (4/24) 11:22 PM EDT (4/24)
Length of Visible Light 14h 03m
Length of Day
13h 12m
Waxing Crescent, 10% of the Moon is Illuminated
Apr 24
Waxing Crescent
Apr 29
First Quarter
May 5
Full
May 12
Last Quarter
May 20
New

Hourly Weather History & Observations

Time (EDT) Temp. Windchill Dew Point Humidity Pressure Visibility Wind Dir Wind Speed Gust Speed Precip Events Conditions
12:15 AM 51.8 °F - 37.4 °F 58% 29.98 in 10.0 mi WNW 6.9 mph - N/A   Clear
12:35 AM 51.8 °F - 37.4 °F 58% 29.98 in 10.0 mi WNW 6.9 mph - N/A   Clear
12:55 AM 51.8 °F - 37.4 °F 58% 29.98 in 10.0 mi NW 6.9 mph - N/A   Clear
1:15 AM 51.8 °F - 37.4 °F 58% 29.98 in 10.0 mi WNW 5.8 mph - N/A   Clear
1:55 AM 50.0 °F - 39.2 °F 66% 29.98 in 10.0 mi WNW 4.6 mph - N/A   Clear
2:15 AM 50.0 °F - 37.4 °F 62% 29.98 in 10.0 mi West 5.8 mph - N/A   Clear
2:35 AM 50.0 °F - 41.0 °F 71% 29.98 in 10.0 mi West 4.6 mph - N/A   Clear
2:55 AM 50.0 °F - 41.0 °F 71% 29.98 in 10.0 mi WNW 4.6 mph - N/A   Clear
3:15 AM 50.0 °F - 41.0 °F 71% 29.97 in 10.0 mi WNW 4.6 mph - N/A   Clear
3:35 AM 50.0 °F - 41.0 °F 71% 29.97 in 10.0 mi WNW 4.6 mph - N/A   Clear
3:55 AM 48.2 °F - 41.0 °F 76% 29.97 in 10.0 mi WNW 4.6 mph - N/A   Clear
4:15 AM 46.4 °F 44.3 °F 41.0 °F 81% 29.98 in 10.0 mi West 4.6 mph - N/A   Clear
4:35 AM 46.4 °F 43.5 °F 41.0 °F 81% 29.98 in 10.0 mi WNW 5.8 mph - N/A   Clear
4:55 AM 46.4 °F 44.3 °F 41.0 °F 81% 29.98 in 10.0 mi NW 4.6 mph - N/A   Clear
5:15 AM 44.6 °F 41.4 °F 41.0 °F 87% 29.98 in 10.0 mi NW 5.8 mph - N/A   Clear
5:35 AM 44.6 °F 40.7 °F 41.0 °F 87% 29.99 in 10.0 mi WNW 6.9 mph - N/A   Clear
5:55 AM 46.4 °F 42.9 °F 41.0 °F 81% 29.99 in 10.0 mi WNW 6.9 mph - N/A   Clear
6:15 AM 46.4 °F 42.9 °F 41.0 °F 81% 29.99 in 10.0 mi WNW 6.9 mph - N/A   Clear
6:35 AM 44.6 °F 41.4 °F 39.2 °F 81% 30.00 in 10.0 mi WNW 5.8 mph - N/A   Clear
6:55 AM 42.8 °F 40.1 °F 39.2 °F 87% 30.00 in 10.0 mi West 4.6 mph - N/A   Clear
7:15 AM 42.8 °F 40.1 °F 41.0 °F 93% 30.01 in 10.0 mi West 4.6 mph - N/A   Clear
7:35 AM 42.8 °F 40.1 °F 41.0 °F 93% 30.02 in 10.0 mi WSW 4.6 mph - N/A   Clear
7:55 AM 44.6 °F 42.2 °F 41.0 °F 87% 30.03 in 10.0 mi West 4.6 mph - N/A   Clear
8:15 AM 48.2 °F - 42.8 °F 82% 30.03 in 10.0 mi West 5.8 mph - N/A   Clear
8:35 AM 50.0 °F - 41.0 °F 71% 30.04 in 10.0 mi WNW 6.9 mph - N/A   Clear
8:55 AM 51.8 °F - 41.0 °F 67% 30.05 in 10.0 mi WNW 6.9 mph - N/A   Clear
9:35 AM 55.4 °F - 41.0 °F 58% 30.05 in 10.0 mi NW 6.9 mph - N/A   Clear
9:55 AM 59.0 °F - 41.0 °F 51% 30.06 in 10.0 mi WNW 6.9 mph - N/A   Clear
10:15 AM 60.8 °F - 37.4 °F 42% 30.06 in 10.0 mi WNW 9.2 mph - N/A   Clear
10:35 AM 62.6 °F - 37.4 °F 39% 30.06 in 10.0 mi WNW 11.5 mph - N/A   Clear
10:55 AM 62.6 °F - 37.4 °F 39% 30.06 in 10.0 mi NW 10.4 mph - N/A   Clear
11:15 AM 64.4 °F - 37.4 °F 37% 30.06 in 10.0 mi NW 11.5 mph 18.4 mph N/A   Clear
11:55 AM 68.0 °F - 37.4 °F 33% 30.06 in 10.0 mi WNW 12.7 mph - N/A   Clear
12:15 PM 66.2 °F - 37.4 °F 35% 30.05 in 10.0 mi WNW 9.2 mph 19.6 mph N/A   Clear
12:35 PM 68.0 °F - 39.2 °F 35% 30.05 in 10.0 mi NW 16.1 mph 19.6 mph N/A   Clear
12:55 PM 69.8 °F - 39.2 °F 33% 30.04 in 10.0 mi WNW 15.0 mph 21.9 mph N/A   Clear
1:15 PM 69.8 °F - 39.2 °F 33% 30.03 in 10.0 mi WNW 13.8 mph 23.0 mph N/A   Clear
1:35 PM 69.8 °F - 39.2 °F 33% 30.02 in 10.0 mi NW 16.1 mph 21.9 mph N/A   Clear
1:55 PM 69.8 °F - 39.2 °F 33% 30.01 in 10.0 mi WNW 12.7 mph 20.7 mph N/A   Clear
2:15 PM 69.8 °F - 39.2 °F 33% 30.01 in 10.0 mi NW 17.3 mph 23.0 mph N/A   Clear
2:35 PM 69.8 °F - 41.0 °F 35% 30.00 in 10.0 mi West 13.8 mph 20.7 mph N/A   Clear
2:55 PM 71.6 °F - 41.0 °F 33% 30.00 in 10.0 mi NW 15.0 mph 18.4 mph N/A   Clear
3:15 PM 71.6 °F - 41.0 °F 33% 29.99 in 10.0 mi WNW 12.7 mph 25.3 mph N/A   Clear
3:35 PM 73.4 °F - 41.0 °F 31% 29.98 in 10.0 mi WNW 18.4 mph 21.9 mph N/A   Clear
3:55 PM 73.4 °F - 41.0 °F 31% 29.97 in 10.0 mi NW 17.3 mph 23.0 mph N/A   Clear
4:15 PM 73.4 °F - 41.0 °F 31% 29.97 in 10.0 mi WNW 15.0 mph 20.7 mph N/A   Clear
4:35 PM 73.4 °F - 42.8 °F 33% 29.97 in 10.0 mi West 10.4 mph 20.7 mph N/A   Clear
4:55 PM 73.4 °F - 42.8 °F 33% 29.96 in 10.0 mi West 16.1 mph 21.9 mph N/A   Clear
5:15 PM 73.4 °F - 42.8 °F 33% 29.96 in 10.0 mi NW 12.7 mph 18.4 mph N/A   Clear
5:35 PM 73.4 °F - 42.8 °F 33% 29.96 in 10.0 mi West 16.1 mph 20.7 mph N/A   Clear
5:55 PM 73.4 °F - 42.8 °F 33% 29.95 in 10.0 mi West 9.2 mph - N/A   Clear
6:15 PM 73.4 °F - 42.8 °F 33% 29.95 in 10.0 mi WNW 16.1 mph - N/A   Clear
6:35 PM 73.4 °F - 44.6 °F 36% 29.95 in 10.0 mi West 13.8 mph - N/A   Clear
6:55 PM 71.6 °F - 42.8 °F 35% 29.95 in 10.0 mi West 10.4 mph - N/A   Clear
7:15 PM 71.6 °F - 42.8 °F 35% 29.95 in 10.0 mi WNW 10.4 mph - N/A   Clear
7:35 PM 71.6 °F - 42.8 °F 35% 29.96 in 10.0 mi West 12.7 mph - N/A   Clear
7:55 PM 69.8 °F - 42.8 °F 38% 29.96 in 10.0 mi West 6.9 mph - N/A   Clear
8:15 PM 68.0 °F - 44.6 °F 43% 29.96 in 10.0 mi WSW 4.6 mph - N/A   Clear
8:35 PM 64.4 °F - 44.6 °F 49% 29.97 in 10.0 mi West 4.6 mph - N/A   Clear
8:55 PM 62.6 °F - 46.4 °F 55% 29.97 in 10.0 mi SW 4.6 mph - N/A   Clear
9:15 PM 62.6 °F - 44.6 °F 52% 29.97 in 10.0 mi SW 5.8 mph - N/A   Clear
9:35 PM 60.8 °F - 46.4 °F 59% 29.98 in 10.0 mi WSW 5.8 mph - N/A   Clear
9:55 PM 60.8 °F - 44.6 °F 55% 29.98 in 10.0 mi SW 5.8 mph - N/A   Clear
10:15 PM 62.6 °F - 44.6 °F 52% 29.99 in 10.0 mi WSW 10.4 mph - N/A   Clear
10:35 PM 62.6 °F - 46.4 °F 55% 30.00 in 10.0 mi WSW 10.4 mph - N/A   Clear
10:55 PM 60.8 °F - 46.4 °F 59% 30.01 in 10.0 mi WSW 8.1 mph - N/A   Clear
11:15 PM 60.8 °F - 46.4 °F 59% 30.02 in 10.0 mi WSW 6.9 mph - N/A   Clear
11:35 PM 59.0 °F - 46.4 °F 63% 30.02 in 10.0 mi WSW 6.9 mph - N/A   Clear
11:55 PM 59.0 °F - 46.4 °F 63% 30.03 in 10.0 mi WSW 6.9 mph - N/A   Clear